Find Starlink 3374

NORAD ID: 51112 Int'l Des: 2022-005 Owner: SPXS Country: US Constellation: starlink operational
LEOCIRCULAR

現在のビュー

3D地球を読み込み中...

About Starlink 3374

Starlink 3374 (NORAD 51112) is a starlink constellation satellite (v1.5) launched Jan 19, 2022 by SPXS of US. It operates in LEO, CIRCULAR orbit with a mass of 297.00 kg.

次回通過

Passes for default location (London). Set your location on the main map for personalized predictions.

高度履歴

Loading altitude history...

軌道要素

1 51112U 22005J 26264.83870289 .00000186 00000-0 16636-4 0 9995
2 51112 53.1598 119.5255 0001244 94.0552 266.0593 15.34385720258618
Epoch: Sep 21, 2026 • Age: 7 hours

現在のステータス

高度 467.7 km
遠地点 / 近地点 N/A
速度 7.64 km/s
衛星直下点 50.00°N, 168.1°W
打ち上げ日 Jan 19, 2022
運用期間 4.6 years
タイプ internet

技術仕様

分類 Payload
質量 297.00 kg
乾燥質量 275.00 kg
長さ 0.20 m
スパン 9.00 m
形状 ? Box + pan
製造者 SPXS
バスタイプ Starlink
フェーズステータス In Orbit
所有者/国 SPXS/US

Most Searched